| time (UTC) | temp F | wind direction | speed MPH | gust MPH | rain 1hr in | rain 24hr in | rain mn in | humidity % | barometer mb |
| 20260903012658 | 69 | 96 | 3.0 | 3.0 | 0.00 | 0.15 | 0.15 | 88 | 1023.6 |
| 20260903012158 | 69 | 159 | 2.0 | 3.0 | 0.00 | 0.15 | 0.15 | 88 | 1023.5 |
| 20260903011652 | 69 | 144 | 3.0 | 4.0 | 0.00 | 0.15 | 0.15 | 88 | 1023.5 |
| 20260903011146 | 69 | 167 | 2.0 | 2.0 | 0.00 | 0.15 | 0.15 | 88 | 1024.1 |
| 20260903010642 | 69 | 96 | 2.0 | 3.0 | 0.00 | 0.15 | 0.15 | 88 | 1023.9 |
| 20260903010141 | 69 | 93 | 1.0 | 2.0 | 0.00 | 0.15 | 0.15 | 88 | 1023.9 |
| 20260903005640 | 69 | 188 | 0.0 | 1.0 | 0.00 | 0.15 | 0.15 | 88 | 1023.8 |
| 20260903005136 | 69 | 201 | 0.0 | 1.0 | 0.00 | 0.15 | 0.15 | 88 | 1024.0 |
| 20260903004631 | 68 | 189 | 1.0 | 1.0 | 0.00 | 0.15 | 0.15 | 88 | 1024.1 |
| 20260903004126 | 68 | 160 | 1.0 | 2.0 | 0.00 | 0.15 | 0.15 | 88 | 1024.4 |
| 20260903003621 | 68 | 146 | 0.0 | 0.0 | 0.00 | 0.15 | 0.15 | 88 | 1024.2 |
| 20260903003116 | 68 | 179 | 2.0 | 2.0 | 0.00 | 0.15 | 0.15 | 88 | 1024.2 |
| 20260903002612 | 68 | 180 | 1.0 | 1.0 | 0.00 | 0.15 | 0.15 | 88 | 1024.0 |
| 20260903002106 | 68 | 134 | 4.0 | 6.0 | 0.00 | 0.15 | 0.15 | 88 | 1023.8 |
| 20260903001601 | 68 | 150 | 3.0 | 3.0 | 0.00 | 0.15 | 0.15 | 88 | 1023.7 |
| 20260903001055 | 68 | 148 | 3.0 | 3.0 | 0.00 | 0.15 | 0.15 | 88 | 1023.8 |
| 20260903000551 | 68 | 196 | 0.0 | 0.0 | 0.00 | 0.15 | 0.15 | 88 | 1023.4 |
| 20260903000049 | 68 | 159 | 1.0 | 1.0 | 0.00 | 0.15 | 0.15 | 88 | 1023.3 |
| 20260902235543 | 68 | 129 | 2.0 | 3.0 | 0.00 | 0.15 | 0.15 | 88 | 1023.5 |
| 20260902235038 | 68 | 190 | 0.0 | 0.0 | 0.00 | 0.15 | 0.15 | 88 | 1023.2 |
| 20260902234538 | 68 | 179 | 1.0 | 1.0 | 0.00 | 0.15 | 0.15 | 88 | 1023.2 |
| 20260902234036 | 68 | 166 | 1.0 | 1.0 | 0.00 | 0.15 | 0.15 | 88 | 1023.2 |
| 20260902233531 | 68 | 116 | 3.0 | 4.0 | 0.00 | 0.15 | 0.15 | 88 | 1023.3 |
| 20260902233026 | 67 | 100 | 3.0 | 4.0 | 0.00 | 0.15 | 0.15 | 89 | 1023.5 |
| 20260902232525 | 67 | 91 | 2.0 | 2.0 | 0.00 | 0.15 | 0.15 | 90 | 1023.5 |
| 20260902232014 | 67 | 327 | 2.0 | 3.0 | 0.00 | 0.15 | 0.15 | 90 | 1023.5 |
| 20260902231509 | 67 | 184 | 0.0 | 0.0 | 0.00 | 0.15 | 0.15 | 90 | 1023.6 |
| 20260902231003 | 67 | 97 | 2.0 | 2.0 | 0.00 | 0.15 | 0.15 | 90 | 1023.6 |
| 20260902230503 | 67 | 196 | 0.0 | 1.0 | 0.00 | 0.15 | 0.15 | 90 | 1023.8 |
| 20260902225956 | 67 | 168 | 1.0 | 1.0 | 0.00 | 0.15 | 0.15 | 90 | 1023.9 |
| 20260902225451 | 67 | 80 | 1.0 | 1.0 | 0.00 | 0.15 | 0.15 | 90 | 1023.8 |
| 20260902224951 | 67 | 189 | 0.0 | 0.0 | 0.00 | 0.15 | 0.15 | 90 | 1024.0 |
| 20260902224445 | 67 | 131 | 1.0 | 1.0 | 0.00 | 0.15 | 0.15 | 90 | 1024.2 |
| 20260902223942 | 67 | 196 | 0.0 | 0.0 | 0.00 | 0.15 | 0.15 | 90 | 1024.2 |
| 20260902223437 | 67 | 33 | 2.0 | 3.0 | 0.00 | 0.15 | 0.15 | 90 | 1024.1 |
| 20260902222936 | 67 | 107 | 1.0 | 1.0 | 0.00 | 0.15 | 0.15 | 90 | 1024.3 |
| 20260902222434 | 67 | 180 | 1.0 | 1.0 | 0.00 | 0.15 | 0.15 | 89 | 1024.3 |
| 20260902221929 | 67 | 176 | 0.0 | 0.0 | 0.00 | 0.15 | 0.15 | 89 | 1024.5 |
| 20260902221428 | 67 | 186 | 0.0 | 0.0 | 0.00 | 0.15 | 0.15 | 89 | 1024.8 |
| 20260902220923 | 67 | 197 | 0.0 | 0.0 | 0.00 | 0.15 | 0.15 | 89 | 1024.6 |
| 20260902220417 | 67 | 166 | 0.0 | 1.0 | 0.00 | 0.15 | 0.15 | 89 | 1024.5 |
| 20260902215913 | 67 | 148 | 1.0 | 2.0 | 0.00 | 0.15 | 0.15 | 88 | 1024.6 |
| 20260902215408 | 67 | 139 | 1.0 | 1.0 | 0.00 | 0.15 | 0.15 | 88 | 1024.8 |
| 20260902214904 | 67 | 181 | 0.0 | 0.0 | 0.00 | 0.15 | 0.15 | 88 | 1024.7 |
| 20260902214402 | 68 | 183 | 1.0 | 1.0 | 0.00 | 0.15 | 0.15 | 88 | 1024.5 |
| 20260902213857 | 67 | 188 | 1.0 | 1.0 | 0.00 | 0.15 | 0.15 | 88 | 1024.6 |
| 20260902213354 | 67 | 159 | 0.0 | 0.0 | 0.00 | 0.15 | 0.15 | 88 | 1024.5 |
| 20260902212852 | 67 | 169 | 1.0 | 1.0 | 0.00 | 0.15 | 0.15 | 87 | 1024.4 |
| 20260902212349 | 67 | 187 | 1.0 | 2.0 | 0.00 | 0.15 | 0.15 | 88 | 1024.4 |
| 20260902211845 | 67 | 183 | 2.0 | 3.0 | 0.00 | 0.15 | 0.15 | 88 | 1024.5 |
| 20260902211340 | 67 | 157 | 1.0 | 1.0 | 0.00 | 0.15 | 0.15 | 88 | 1024.4 |
| 20260902210835 | 67 | 151 | 2.0 | 2.0 | 0.00 | 0.15 | 0.15 | 88 | 1024.5 |
| 20260902210334 | 67 | 183 | 2.0 | 2.0 | 0.00 | 0.15 | 0.15 | 88 | 1024.4 |
| 20260902205833 | 67 | 133 | 2.0 | 2.0 | 0.00 | 0.15 | 0.15 | 88 | 1024.4 |
| 20260902205327 | 66 | 176 | 1.0 | 2.0 | 0.00 | 0.15 | 0.15 | 88 | 1024.4 |
| 20260902204824 | 66 | 115 | 2.0 | 3.0 | 0.00 | 0.15 | 0.15 | 88 | 1024.3 |
| 20260902204318 | 66 | 189 | 2.0 | 2.0 | 0.00 | 0.15 | 0.15 | 88 | 1024.2 |
| 20260902203814 | 66 | 166 | 1.0 | 2.0 | 0.00 | 0.15 | 0.15 | 89 | 1024.0 |
| 20260902203309 | 66 | 191 | 2.0 | 3.0 | 0.00 | 0.15 | 0.15 | 90 | 1024.3 |
| 20260902202808 | 66 | 150 | 1.0 | 1.0 | 0.00 | 0.15 | 0.15 | 91 | 1024.2 |
| 20260902202306 | 67 | 186 | 0.0 | 0.0 | 0.00 | 0.15 | 0.15 | 92 | 1024.4 |
| 20260902201801 | 67 | 117 | 3.0 | 4.0 | 0.00 | 0.15 | 0.15 | 92 | 1024.3 |
| 20260902201301 | 67 | 157 | 2.0 | 3.0 | 0.00 | 0.15 | 0.15 | 92 | 1024.2 |
| 20260902200756 | 66 | 44 | 2.0 | 4.0 | 0.00 | 0.15 | 0.15 | 92 | 1024.0 |
| 20260902200252 | 66 | 146 | 2.0 | 3.0 | 0.00 | 0.15 | 0.15 | 92 | 1024.2 |
| 20260902195747 | 66 | 194 | 3.0 | 3.0 | 0.05 | 0.15 | 0.15 | 93 | 1024.4 |
| 20260902195246 | 66 | 193 | 2.0 | 2.0 | 0.12 | 0.15 | 0.15 | 92 | 1024.4 |
| 20260902194745 | 66 | 87 | 4.0 | 4.0 | 0.07 | 0.14 | 0.14 | 92 | 1024.3 |
| 20260902194241 | 66 | 259 | 0.0 | 0.0 | 0.00 | 0.13 | 0.13 | 92 | 1024.9 |
| 20260902193736 | 66 | 136 | 2.0 | 2.0 | 0.05 | 0.13 | 0.13 | 92 | 1025.0 |
| 20260902193231 | 67 | 203 | 0.0 | 0.0 | 0.05 | 0.13 | 0.13 | 92 | 1024.9 |
| 20260902192731 | 67 | 221 | 1.0 | 1.0 | 0.00 | 0.12 | 0.12 | 92 | 1024.8 |
| 20260902192230 | 67 | 220 | 0.0 | 1.0 | 0.07 | 0.12 | 0.12 | 92 | 1024.6 |
| 20260902191725 | 67 | 108 | 0.0 | 1.0 | 0.19 | 0.12 | 0.12 | 91 | 1024.7 |
| 20260902191225 | 67 | 133 | 1.0 | 1.0 | 0.24 | 0.11 | 0.11 | 91 | 1024.9 |
| 20260902190720 | 67 | 84 | 1.0 | 1.0 | 0.47 | 0.10 | 0.10 | 90 | 1025.1 |
| 20260902190220 | 68 | 61 | 3.0 | 3.0 | 0.35 | 0.07 | 0.07 | 89 | 1024.9 |
| 20260902185716 | 68 | 205 | 0.0 | 0.0 | 0.05 | 0.02 | 0.02 | 87 | 1025.4 |
| 20260902185208 | 69 | 281 | 3.0 | 3.0 | 0.00 | 0.01 | 0.01 | 85 | 1025.5 |
| 20260902184701 | 69 | 253 | 0.0 | 0.0 | 0.00 | 0.01 | 0.01 | 83 | 1025.4 |
| 20260902184156 | 70 | 241 | 0.0 | 0.0 | 0.00 | 0.01 | 0.01 | 82 | 1025.1 |
| 20260902183652 | 70 | 100 | 4.0 | 4.0 | 0.00 | 0.01 | 0.01 | 82 | 1024.8 |
| 20260902183149 | 70 | 79 | 2.0 | 2.0 | 0.00 | 0.01 | 0.01 | 82 | 1024.7 |
| 20260902182644 | 70 | 98 | 2.0 | 4.0 | 0.00 | 0.01 | 0.01 | 81 | 1024.3 |
| 20260902182141 | 70 | 144 | 1.0 | 2.0 | 0.00 | 0.01 | 0.01 | 81 | 1024.6 |
| 20260902181637 | 70 | 136 | 4.0 | 4.0 | 0.00 | 0.01 | 0.01 | 81 | 1024.6 |
| 20260902181136 | 70 | 186 | 2.0 | 2.0 | 0.00 | 0.01 | 0.01 | 81 | 1024.7 |
| 20260902180635 | 70 | 67 | 4.0 | 6.0 | 0.00 | 0.01 | 0.01 | 80 | 1024.8 |
| 20260902180132 | 70 | 107 | 2.0 | 2.0 | 0.00 | 0.01 | 0.01 | 81 | 1024.7 |
| 20260902175631 | 70 | 89 | 2.0 | 3.0 | 0.00 | 0.01 | 0.01 | 81 | 1024.9 |
| 20260902175127 | 70 | 124 | 2.0 | 3.0 | 0.00 | 0.01 | 0.01 | 81 | 1024.9 |
| 20260902174623 | 71 | 173 | 5.0 | 7.0 | 0.00 | 0.01 | 0.01 | 80 | 1024.9 |
| 20260902174119 | 71 | 162 | 0.0 | 0.0 | 0.00 | 0.01 | 0.01 | 81 | 1024.9 |
| 20260902173614 | 70 | 110 | 4.0 | 7.0 | 0.00 | 0.01 | 0.01 | 80 | 1024.9 |
| 20260902173109 | 70 | 41 | 3.0 | 3.0 | 0.00 | 0.01 | 0.01 | 81 | 1025.0 |
| 20260902172609 | 70 | 170 | 5.0 | 6.0 | 0.00 | 0.01 | 0.01 | 80 | 1024.9 |
| 20260902172103 | 70 | 190 | 2.0 | 2.0 | 0.00 | 0.01 | 0.01 | 82 | 1024.8 |
| 20260902171559 | 70 | 162 | 2.0 | 2.0 | 0.00 | 0.01 | 0.01 | 82 | 1024.8 |
| 20260902171054 | 70 | 149 | 4.0 | 6.0 | 0.00 | 0.01 | 0.01 | 82 | 1025.1 |
| 20260902170549 | 69 | 128 | 2.0 | 3.0 | 0.00 | 0.01 | 0.01 | 82 | 1025.0 |
| 20260902170045 | 69 | 157 | 2.0 | 3.0 | 0.00 | 0.01 | 0.01 | 83 | 1025.3 |
| 20260902165539 | 69 | 91 | 3.0 | 4.0 | 0.00 | 0.01 | 0.01 | 82 | 1025.2 |
| 20260902165033 | 69 | 171 | 3.0 | 3.0 | 0.00 | 0.01 | 0.01 | 82 | 1025.3 |
| 20260902164529 | 69 | 141 | 1.0 | 2.0 | 0.00 | 0.01 | 0.01 | 83 | 1025.5 |
| 20260902164027 | 69 | 140 | 3.0 | 4.0 | 0.00 | 0.01 | 0.01 | 83 | 1025.3 |
| 20260902163524 | 69 | 127 | 1.0 | 2.0 | 0.00 | 0.01 | 0.01 | 83 | 1025.5 |
| 20260902163021 | 69 | 133 | 3.0 | 3.0 | 0.00 | 0.01 | 0.01 | 83 | 1025.4 |
| 20260902162516 | 69 | 150 | 2.0 | 3.0 | 0.00 | 0.01 | 0.01 | 83 | 1025.1 |
| 20260902162011 | 68 | 165 | 1.0 | 2.0 | 0.00 | 0.01 | 0.01 | 83 | 1025.3 |
| 20260902161506 | 68 | 185 | 0.0 | 1.0 | 0.00 | 0.01 | 0.01 | 83 | 1025.2 |
| 20260902161002 | 68 | 104 | 4.0 | 4.0 | 0.00 | 0.01 | 0.01 | 83 | 1025.0 |
| 20260902160458 | 68 | 83 | 5.0 | 7.0 | 0.00 | 0.01 | 0.01 | 83 | 1025.3 |
| 20260902155955 | 69 | 181 | 1.0 | 1.0 | 0.00 | 0.01 | 0.01 | 83 | 1025.5 |
| 20260902155451 | 69 | 125 | 3.0 | 6.0 | 0.00 | 0.01 | 0.01 | 82 | 1025.2 |
| 20260902154945 | 69 | 153 | 2.0 | 2.0 | 0.00 | 0.01 | 0.01 | 82 | 1025.4 |
| 20260902154440 | 69 | 115 | 3.0 | 4.0 | 0.00 | 0.01 | 0.01 | 82 | 1025.3 |
| 20260902153939 | 69 | 133 | 6.0 | 7.0 | 0.00 | 0.01 | 0.01 | 81 | 1025.3 |
| 20260902153437 | 69 | 143 | 4.0 | 6.0 | 0.00 | 0.01 | 0.01 | 82 | 1025.5 |
| 20260902152934 | 69 | 148 | 5.0 | 7.0 | 0.00 | 0.01 | 0.01 | 82 | 1025.4 |
| 20260902152429 | 69 | 139 | 1.0 | 2.0 | 0.00 | 0.01 | 0.01 | 82 | 1025.5 |
| 20260902151924 | 69 | 171 | 2.0 | 3.0 | 0.00 | 0.01 | 0.01 | 83 | 1025.5 |
| 20260902151421 | 69 | 122 | 2.0 | 3.0 | 0.00 | 0.01 | 0.01 | 82 | 1025.6 |
| 20260902150914 | 69 | 132 | 3.0 | 4.0 | 0.00 | 0.01 | 0.01 | 82 | 1025.5 |
| 20260902150411 | 69 | 93 | 4.0 | 4.0 | 0.00 | 0.01 | 0.01 | 82 | 1025.6 |
| 20260902145910 | 68 | 93 | 3.0 | 6.0 | 0.00 | 0.01 | 0.01 | 82 | 1025.4 |
| 20260902145406 | 69 | 160 | 2.0 | 2.0 | 0.00 | 0.01 | 0.01 | 82 | 1025.4 |
| 20260902144900 | 69 | 76 | 5.0 | 7.0 | 0.00 | 0.01 | 0.01 | 82 | 1025.4 |
| 20260902144356 | 68 | 94 | 3.0 | 3.0 | 0.00 | 0.01 | 0.01 | 82 | 1025.2 |
| 20260902143851 | 69 | 102 | 4.0 | 4.0 | 0.00 | 0.01 | 0.01 | 82 | 1025.2 |
| 20260902143346 | 70 | 179 | 7.0 | 8.0 | 0.00 | 0.01 | 0.01 | 80 | 1025.4 |
| 20260902142842 | 69 | 166 | 2.0 | 3.0 | 0.00 | 0.01 | 0.01 | 81 | 1025.1 |
| 20260902142338 | 68 | 62 | 3.0 | 4.0 | 0.00 | 0.01 | 0.01 | 82 | 1025.3 |
| 20260902141833 | 68 | 109 | 2.0 | 3.0 | 0.00 | 0.01 | 0.01 | 82 | 1025.4 |
| 20260902141328 | 68 | 167 | 0.0 | 1.0 | 0.00 | 0.01 | 0.01 | 84 | 1025.5 |
| 20260902140827 | 67 | 229 | 0.0 | 1.0 | 0.00 | 0.01 | 0.01 | 84 | 1025.5 |
| 20260902140322 | 67 | 159 | 1.0 | 2.0 | 0.00 | 0.01 | 0.01 | 84 | 1025.8 |
| 20260902135822 | 68 | 111 | 1.0 | 1.0 | 0.00 | 0.01 | 0.01 | 84 | 1025.5 |
| 20260902135318 | 67 | 83 | 4.0 | 6.0 | 0.00 | 0.01 | 0.01 | 84 | 1025.5 |
| 20260902134817 | 67 | 170 | 0.0 | 0.0 | 0.00 | 0.01 | 0.01 | 85 | 1025.5 |
| 20260902134313 | 67 | 167 | 2.0 | 3.0 | 0.00 | 0.01 | 0.01 | 84 | 1025.3 |
| 20260902133808 | 67 | 130 | 1.0 | 1.0 | 0.00 | 0.01 | 0.01 | 85 | 1025.2 |
| 20260902133307 | 66 | 103 | 2.0 | 2.0 | 0.00 | 0.01 | 0.01 | 85 | 1025.0 |
| 20260902132802 | 66 | 73 | 1.0 | 2.0 | 0.00 | 0.01 | 0.01 | 85 | 1025.0 |
| 20260902132257 | 66 | 152 | 1.0 | 1.0 | 0.00 | 0.01 | 0.01 | 86 | 1024.9 |
| 20260902131753 | 66 | 45 | 2.0 | 2.0 | 0.00 | 0.01 | 0.01 | 86 | 1024.9 |
| 20260902131249 | 65 | 144 | 0.0 | 0.0 | 0.00 | 0.01 | 0.01 | 87 | 1025.0 |
| 20260902130749 | 65 | 70 | 3.0 | 4.0 | 0.00 | 0.01 | 0.01 | 87 | 1025.1 |
| 20260902130245 | 64 | 84 | 2.0 | 3.0 | 0.00 | 0.01 | 0.01 | 87 | 1025.1 |
| 20260902125740 | 64 | 222 | 1.0 | 2.0 | 0.00 | 0.01 | 0.01 | 88 | 1024.7 |
| 20260902125236 | 64 | 191 | 0.0 | 1.0 | 0.00 | 0.01 | 0.01 | 89 | 1025.0 |
| 20260902124732 | 64 | 127 | 1.0 | 1.0 | 0.00 | 0.01 | 0.01 | 89 | 1025.2 |
| 20260902124227 | 64 | 140 | 1.0 | 1.0 | 0.00 | 0.01 | 0.01 | 90 | 1024.9 |
| 20260902123722 | 64 | 199 | 0.0 | 1.0 | 0.00 | 0.01 | 0.01 | 90 | 1024.9 |
| 20260902123218 | 63 | 150 | 1.0 | 1.0 | 0.00 | 0.01 | 0.01 | 90 | 1025.0 |
| 20260902122717 | 63 | 147 | 1.0 | 1.0 | 0.00 | 0.01 | 0.01 | 90 | 1025.1 |
| 20260902122214 | 63 | 175 | 1.0 | 1.0 | 0.00 | 0.01 | 0.01 | 90 | 1025.0 |
| 20260902121713 | 63 | 113 | 1.0 | 2.0 | 0.00 | 0.01 | 0.01 | 90 | 1024.9 |
| 20260902121209 | 63 | 80 | 3.0 | 7.0 | 0.00 | 0.01 | 0.01 | 91 | 1024.7 |
| 20260902120704 | 63 | 91 | 2.0 | 2.0 | 0.00 | 0.01 | 0.01 | 91 | 1024.9 |
| 20260902120200 | 63 | 135 | 1.0 | 2.0 | 0.00 | 0.01 | 0.01 | 92 | 1025.0 |
| 20260902115700 | 63 | 270 | 3.0 | 6.0 | 0.00 | 0.01 | 0.01 | 92 | 1024.9 |
| 20260902115156 | 63 | 100 | 1.0 | 2.0 | 0.00 | 0.01 | 0.01 | 93 | 1024.7 |
| 20260902114652 | 62 | 160 | 2.0 | 2.0 | 0.00 | 0.01 | 0.01 | 93 | 1024.8 |
| 20260902114147 | 62 | 229 | 2.0 | 2.0 | 0.00 | 0.01 | 0.01 | 93 | 1024.9 |
| 20260902113642 | 62 | 147 | 0.0 | 1.0 | 0.00 | 0.01 | 0.01 | 93 | 1024.8 |
| 20260902113137 | 62 | 205 | 0.0 | 0.0 | 0.00 | 0.01 | 0.01 | 93 | 1024.9 |
| 20260902112632 | 62 | 199 | 0.0 | 0.0 | 0.00 | 0.01 | 0.01 | 94 | 1024.8 |
| 20260902112129 | 62 | 151 | 1.0 | 1.0 | 0.00 | 0.01 | 0.01 | 94 | 1024.9 |
| 20260902111625 | 62 | 83 | 2.0 | 3.0 | 0.00 | 0.01 | 0.01 | 94 | 1024.8 |
| 20260902111120 | 62 | 176 | 0.0 | 0.0 | 0.00 | 0.01 | 0.01 | 94 | 1024.6 |
| 20260902110616 | 62 | 92 | 1.0 | 2.0 | 0.00 | 0.01 | 0.01 | 94 | 1024.7 |
| 20260902110113 | 62 | 186 | 0.0 | 0.0 | 0.00 | 0.01 | 0.01 | 94 | 1024.7 |
| 20260902105606 | 62 | 151 | 0.0 | 1.0 | 0.00 | 0.01 | 0.01 | 94 | 1024.9 |
| 20260902105101 | 62 | 180 | 0.0 | 0.0 | 0.00 | 0.01 | 0.01 | 94 | 1024.9 |
| 20260902104556 | 62 | 132 | 0.0 | 1.0 | 0.00 | 0.01 | 0.01 | 94 | 1024.8 |
| 20260902104051 | 62 | 220 | 0.0 | 0.0 | 0.00 | 0.01 | 0.01 | 94 | 1024.6 |
| 20260902103546 | 62 | 135 | 0.0 | 0.0 | 0.00 | 0.01 | 0.01 | 94 | 1024.8 |
| 20260902103041 | 62 | 195 | 0.0 | 0.0 | 0.00 | 0.01 | 0.01 | 94 | 1024.3 |
| 20260902102538 | 62 | 201 | 0.0 | 1.0 | 0.00 | 0.01 | 0.01 | 94 | 1024.5 |
| 20260902102035 | 62 | 127 | 0.0 | 1.0 | 0.07 | 0.01 | 0.01 | 94 | 1024.4 |
| 20260902101530 | 62 | 177 | 2.0 | 3.0 | 0.07 | 0.01 | 0.01 | 94 | 1024.2 |
| 20260902101028 | 62 | 126 | 1.0 | 2.0 | 0.00 | 0.00 | 0.00 | 95 | 1024.1 |
| 20260902100523 | 63 | 109 | 1.0 | 2.0 | 0.00 | 0.00 | 0.00 | 94 | 1024.3 |
| 20260902100018 | 63 | 81 | 1.0 | 1.0 | 0.00 | 0.00 | 0.00 | 94 | 1024.2 |
| 20260902095517 | 63 | 111 | 1.0 | 1.0 | 0.00 | 0.00 | 0.00 | 94 | 1024.2 |
| 20260902095016 | 63 | 93 | 2.0 | 2.0 | 0.00 | 0.00 | 0.00 | 94 | 1024.2 |
| 20260902094512 | 63 | 110 | 2.0 | 4.0 | 0.00 | 0.00 | 0.00 | 94 | 1024.2 |
| 20260902094007 | 63 | 146 | 0.0 | 0.0 | 0.00 | 0.00 | 0.00 | 94 | 1024.2 |
| 20260902093502 | 63 | 82 | 3.0 | 4.0 | 0.00 | 0.00 | 0.00 | 94 | 1024.2 |
| 20260902093001 | 63 | 109 | 0.0 | 1.0 | 0.00 | 0.00 | 0.00 | 94 | 1024.2 |
| 20260902092456 | 63 | 204 | 0.0 | 0.0 | 0.00 | 0.00 | 0.00 | 94 | 1024.4 |
| 20260902091951 | 63 | 115 | 2.0 | 3.0 | 0.00 | 0.00 | 0.00 | 94 | 1024.2 |
| 20260902091446 | 63 | 167 | 1.0 | 2.0 | 0.00 | 0.00 | 0.00 | 94 | 1024.3 |
| 20260902090943 | 63 | 157 | 0.0 | 0.0 | 0.00 | 0.00 | 0.00 | 94 | 1024.2 |
| 20260902090437 | 63 | 115 | 0.0 | 1.0 | 0.00 | 0.00 | 0.00 | 94 | 1024.2 |
| 20260902085936 | 63 | 193 | 0.0 | 0.0 | 0.00 | 0.00 | 0.00 | 94 | 1024.0 |
| 20260902085432 | 63 | 74 | 1.0 | 3.0 | 0.00 | 0.00 | 0.00 | 94 | 1024.0 |
| 20260902084927 | 63 | 336 | 1.0 | 1.0 | 0.00 | 0.00 | 0.00 | 94 | 1024.2 |
| 20260902084423 | 63 | 231 | 0.0 | 0.0 | 0.00 | 0.00 | 0.00 | 94 | 1023.9 |
| 20260902083918 | 63 | 192 | 0.0 | 0.0 | 0.00 | 0.00 | 0.00 | 94 | 1024.0 |
| 20260902083413 | 63 | 131 | 2.0 | 3.0 | 0.00 | 0.00 | 0.00 | 93 | 1023.8 |
| 20260902082908 | 63 | 201 | 0.0 | 0.0 | 0.00 | 0.00 | 0.00 | 93 | 1023.9 |
| 20260902082403 | 63 | 121 | 1.0 | 1.0 | 0.00 | 0.00 | 0.00 | 93 | 1023.8 |
| 20260902081900 | 63 | 55 | 3.0 | 3.0 | 0.00 | 0.00 | 0.00 | 93 | 1023.7 |
| 20260902081356 | 63 | 143 | 0.0 | 0.0 | 0.00 | 0.00 | 0.00 | 93 | 1023.9 |
| 20260902080850 | 63 | 214 | 1.0 | 2.0 | 0.00 | 0.00 | 0.00 | 93 | 1023.4 |
| 20260902080347 | 63 | 103 | 1.0 | 1.0 | 0.00 | 0.00 | 0.00 | 94 | 1023.5 |
| 20260902075846 | 63 | 105 | 1.0 | 2.0 | 0.00 | 0.00 | 0.00 | 93 | 1023.4 |
| 20260902075343 | 64 | 201 | 0.0 | 0.0 | 0.00 | 0.00 | 0.00 | 94 | 1023.3 |
| 20260902074843 | 64 | 204 | 0.0 | 0.0 | 0.00 | 0.00 | 0.00 | 94 | 1023.2 |
| 20260902074338 | 63 | 139 | 1.0 | 1.0 | 0.00 | 0.00 | 0.00 | 94 | 1023.4 |
| 20260902073833 | 63 | 143 | 1.0 | 2.0 | 0.00 | 0.00 | 0.00 | 94 | 1023.4 |
| 20260902073330 | 63 | 178 | 0.0 | 0.0 | 0.00 | 0.00 | 0.00 | 94 | 1023.3 |
| 20260902072825 | 63 | 93 | 3.0 | 3.0 | 0.00 | 0.00 | 0.00 | 94 | 1023.3 |
| 20260902072320 | 63 | 127 | 0.0 | 1.0 | 0.00 | 0.00 | 0.00 | 94 | 1023.2 |
| 20260902071817 | 63 | 117 | 1.0 | 1.0 | 0.00 | 0.00 | 0.00 | 94 | 1023.2 |
| 20260902071312 | 63 | 339 | 0.0 | 1.0 | 0.00 | 0.00 | 0.00 | 94 | 1022.9 |
| 20260902070808 | 63 | 200 | 0.0 | 1.0 | 0.00 | 0.00 | 0.00 | 94 | 1023.1 |
| 20260902070308 | 63 | 144 | 1.0 | 1.0 | 0.00 | 0.00 | 0.00 | 94 | 1023.1 |
| 20260902065806 | 63 | 28 | 0.0 | 0.0 | 0.00 | 0.00 | 0.00 | 94 | 1023.1 |
| 20260902065302 | 63 | 190 | 0.0 | 0.0 | 0.00 | 0.00 | 0.00 | 94 | 1023.1 |
| 20260902064757 | 63 | 196 | 0.0 | 0.0 | 0.00 | 0.00 | 0.00 | 94 | 1023.1 |
| 20260902064253 | 63 | 218 | 0.0 | 0.0 | 0.00 | 0.00 | 0.00 | 94 | 1023.3 |
| 20260902063748 | 63 | 239 | 1.0 | 1.0 | 0.00 | 0.00 | 0.00 | 94 | 1023.3 |
| 20260902063243 | 63 | 189 | 1.0 | 1.0 | 0.00 | 0.00 | 0.00 | 94 | 1023.1 |
| 20260902062743 | 63 | 43 | 2.0 | 4.0 | 0.00 | 0.00 | 0.00 | 94 | 1023.0 |
| 20260902062238 | 63 | 138 | 0.0 | 0.0 | 0.00 | 0.00 | 0.00 | 94 | 1023.4 |
| 20260902061737 | 64 | 203 | 0.0 | 0.0 | 0.00 | 0.00 | 0.00 | 94 | 1023.3 |
| 20260902061232 | 64 | 154 | 1.0 | 2.0 | 0.00 | 0.00 | 0.00 | 94 | 1023.3 |
| 20260902060729 | 64 | 221 | 0.0 | 0.0 | 0.00 | 0.00 | 0.00 | 94 | 1023.4 |
| 20260902060225 | 64 | 193 | 0.0 | 0.0 | 0.00 | 0.00 | 0.00 | 94 | 1023.3 |
| 20260902055720 | 64 | 98 | 1.0 | 2.0 | 0.00 | 0.00 | 0.00 | 94 | 1023.6 |
| 20260902055216 | 64 | 187 | 0.0 | 0.0 | 0.00 | 0.00 | 0.00 | 94 | 1023.4 |
| 20260902054711 | 64 | 99 | 1.0 | 1.0 | 0.00 | 0.00 | 0.00 | 93 | 1023.5 |
| 20260902054207 | 64 | 205 | 0.0 | 0.0 | 0.00 | 0.00 | 0.00 | 93 | 1023.3 |
| 20260902053702 | 64 | 172 | 2.0 | 3.0 | 0.00 | 0.00 | 0.00 | 93 | 1023.5 |
| 20260902053202 | 64 | 176 | 0.0 | 0.0 | 0.00 | 0.00 | 0.00 | 93 | 1023.4 |
| 20260902052701 | 64 | 195 | 0.0 | 0.0 | 0.00 | 0.00 | 0.00 | 93 | 1023.4 |
| 20260902052156 | 64 | 174 | 0.0 | 0.0 | 0.00 | 0.00 | 0.00 | 93 | 1023.4 |
| 20260902051656 | 64 | 183 | 1.0 | 1.0 | 0.00 | 0.00 | 0.00 | 92 | 1023.5 |
| 20260902051151 | 64 | 150 | 0.0 | 1.0 | 0.00 | 0.00 | 0.00 | 92 | 1023.5 |
| 20260902050651 | 64 | 213 | 0.0 | 0.0 | 0.00 | 0.00 | 0.00 | 92 | 1023.3 |
| 20260902050146 | 64 | 92 | 2.0 | 2.0 | 0.00 | 0.00 | 0.00 | 92 | 1023.2 |
| 20260902045641 | 64 | 182 | 1.0 | 1.0 | 0.00 | 0.00 | 0.00 | 92 | 1023.4 |
| 20260902045138 | 64 | 187 | 0.0 | 0.0 | 0.00 | 0.00 | 0.00 | 92 | 1023.2 |
| 20260902044637 | 64 | 144 | 0.0 | 0.0 | 0.00 | 0.00 | 0.00 | 92 | 1023.3 |
| 20260902044134 | 64 | 176 | 0.0 | 1.0 | 0.00 | 0.00 | 0.00 | 92 | 1023.2 |
| 20260902043629 | 64 | 104 | 1.0 | 2.0 | 0.00 | 0.00 | 0.00 | 91 | 1023.3 |
| 20260902043124 | 65 | 96 | 1.0 | 1.0 | 0.00 | 0.00 | 0.00 | 91 | 1023.2 |
| 20260902042623 | 65 | 145 | 1.0 | 2.0 | 0.00 | 0.00 | 0.00 | 91 | 1023.1 |
| 20260902042119 | 65 | 318 | 2.0 | 3.0 | 0.00 | 0.00 | 0.00 | 91 | 1023.3 |
| 20260902041618 | 65 | 70 | 1.0 | 2.0 | 0.00 | 0.00 | 0.00 | 91 | 1023.1 |
| 20260902041113 | 65 | 145 | 0.0 | 1.0 | 0.00 | 0.00 | 0.00 | 91 | 1023.0 |
| 20260902040607 | 65 | 145 | 2.0 | 2.0 | 0.00 | 0.00 | 0.00 | 91 | 1022.8 |
| 20260902035600 | 65 | 107 | 3.0 | 4.0 | 0.00 | 1.01 | 1.01 | 91 | 1022.8 |
| 20260902035056 | 65 | 110 | 2.0 | 3.0 | 0.00 | 1.01 | 1.01 | 91 | 1022.9 |
| 20260902034555 | 65 | 182 | 0.0 | 1.0 | 0.00 | 1.01 | 1.01 | 90 | 1022.9 |
| 20260902034054 | 65 | 63 | 2.0 | 4.0 | 0.00 | 1.01 | 1.01 | 90 | 1022.8 |
| 20260902033554 | 65 | 140 | 1.0 | 1.0 | 0.00 | 1.01 | 1.01 | 90 | 1022.4 |
| 20260902033049 | 65 | 147 | 3.0 | 3.0 | 0.00 | 1.01 | 1.01 | 90 | 1022.8 |
| 20260902032548 | 65 | 180 | 0.0 | 0.0 | 0.00 | 1.01 | 1.01 | 90 | 1022.4 |
| 20260902032043 | 65 | 87 | 2.0 | 2.0 | 0.00 | 1.01 | 1.01 | 90 | 1022.4 |
| 20260902031537 | 66 | 208 | 1.0 | 1.0 | 0.00 | 1.01 | 1.01 | 90 | 1022.2 |
| 20260902031034 | 66 | 136 | 3.0 | 4.0 | 0.00 | 1.01 | 1.01 | 90 | 1022.2 |
| 20260902030534 | 65 | 130 | 1.0 | 2.0 | 0.00 | 1.01 | 1.01 | 90 | 1022.0 |
| 20260902030034 | 65 | 75 | 3.0 | 3.0 | 0.00 | 1.01 | 1.01 | 89 | 1022.2 |
| 20260902025528 | 65 | 64 | 4.0 | 4.0 | 0.00 | 1.01 | 1.01 | 89 | 1022.1 |
| 20260902025024 | 66 | 100 | 2.0 | 3.0 | 0.00 | 1.01 | 1.01 | 89 | 1022.4 |
| 20260902024519 | 66 | 68 | 2.0 | 2.0 | 0.00 | 1.01 | 1.01 | 89 | 1022.7 |
| 20260902024013 | 66 | 143 | 5.0 | 6.0 | 0.00 | 1.01 | 1.01 | 89 | 1022.8 |
| 20260902023509 | 66 | 87 | 2.0 | 3.0 | 0.00 | 1.01 | 1.01 | 89 | 1022.7 |
| 20260902023004 | 66 | 202 | 3.0 | 4.0 | 0.00 | 1.01 | 1.01 | 89 | 1022.2 |
| 20260902022458 | 66 | 198 | 2.0 | 2.0 | 0.00 | 1.01 | 1.01 | 89 | 1022.3 |
| 20260902021954 | 66 | 120 | 2.0 | 4.0 | 0.00 | 1.01 | 1.01 | 89 | 1022.3 |
| 20260902021449 | 66 | 86 | 2.0 | 4.0 | 0.00 | 1.01 | 1.01 | 89 | 1022.2 |
| 20260902020944 | 66 | 108 | 2.0 | 2.0 | 0.00 | 1.01 | 1.01 | 89 | 1022.0 |
| 20260902020440 | 66 | 160 | 1.0 | 1.0 | 0.00 | 1.01 | 1.01 | 89 | 1022.0 |
| 20260902015936 | 66 | 119 | 1.0 | 1.0 | 0.00 | 1.01 | 1.01 | 88 | 1021.9 |
| 20260902015431 | 66 | 113 | 1.0 | 2.0 | 0.00 | 1.01 | 1.01 | 88 | 1021.8 |
| 20260902014926 | 66 | 87 | 4.0 | 4.0 | 0.00 | 1.01 | 1.01 | 88 | 1021.6 |
| 20260902014423 | 66 | 88 | 3.0 | 4.0 | 0.00 | 1.01 | 1.01 | 88 | 1021.6 |
| 20260902013922 | 66 | 139 | 2.0 | 3.0 | 0.00 | 1.01 | 1.01 | 88 | 1021.3 |
| 20260902013418 | 66 | 134 | 4.0 | 4.0 | 0.00 | 1.01 | 1.01 | 88 | 1021.4 |
| 20260902012913 | 67 | 116 | 7.0 | 11.0 | 0.00 | 1.01 | 1.01 | 87 | 1021.5 |